GW1905 Weather Reports


Display with metric or nautical units.
time (UTC)temp
F
wind
direction
speed
MPH
gust
MPH
rain 1hr
in
rain 24hr
in
rain mn
in
humidity
%
barometer
mb
20260906122052 74 100 0.0 0.0 0.00 0.00 0.00 97 1017.6
20260906121548 73 91 0.0 0.0 0.00 0.00 0.00 97 1017.5
20260906121045 72 92 0.0 1.0 0.00 0.00 0.00 98 1017.4
20260906120539 72 105 0.0 1.0 0.00 0.00 0.00 98 1017.4
20260906120037 71 107 0.0 0.0 0.00 0.00 0.00 98 1017.3
20260906115537 71 107 0.0 0.0 0.00 0.00 0.00 99 1017.2
20260906115032 71 107 0.0 0.0 0.00 0.00 0.00 98 1017.2
20260906114526 70 107 0.0 0.0 0.00 0.00 0.00 98 1017.3
20260906114022 70 107 0.0 0.0 0.00 0.00 0.00 98 1017.1
20260906113520 70 107 0.0 0.0 0.00 0.00 0.00 98 1017.0
20260906113016 70 107 0.0 0.0 0.00 0.00 0.00 98 1017.0
20260906112511 70 107 0.0 0.0 0.00 0.00 0.00 98 1016.8
20260906112007 70 107 0.0 1.0 0.00 0.00 0.00 98 1016.8
20260906111501 70 107 0.0 0.0 0.00 0.00 0.00 98 1016.8
20260906110956 70 107 0.0 0.0 0.00 0.00 0.00 98 1016.9
20260906110450 70 107 0.0 1.0 0.00 0.00 0.00 98 1016.9
20260906105949 70 108 0.0 1.0 0.00 0.00 0.00 98 1016.8
20260906105445 70 109 0.0 0.0 0.00 0.00 0.00 98 1016.7
20260906104942 70 109 0.0 1.0 0.00 0.00 0.00 97 1016.8
20260906104440 70 109 0.0 1.0 0.00 0.00 0.00 97 1016.6
20260906103939 70 111 0.0 0.0 0.00 0.00 0.00 97 1016.5
20260906103438 71 111 0.0 1.0 0.00 0.00 0.00 97 1016.6
20260906102933 71 115 0.0 0.0 0.00 0.00 0.00 97 1016.5
20260906102433 71 115 0.0 0.0 0.00 0.00 0.00 97 1016.3
20260906101927 71 115 0.0 0.0 0.00 0.00 0.00 97 1016.3
20260906101423 71 116 0.0 0.0 0.00 0.00 0.00 97 1016.2
20260906100918 71 116 0.0 1.0 0.00 0.00 0.00 96 1016.3
20260906100418 71 115 0.0 1.0 0.00 0.00 0.00 96 1016.3
20260906095912 71 74 0.0 0.0 0.00 0.00 0.00 96 1016.5
20260906095408 71 91 0.0 0.0 0.00 0.00 0.00 96 1016.5
20260906094908 71 81 0.0 2.0 0.00 0.00 0.00 96 1016.5
20260906094403 71 84 0.0 0.0 0.00 0.00 0.00 96 1016.7
20260906093853 71 84 0.0 0.0 0.00 0.00 0.00 96 1016.5
20260906093349 71 84 0.0 0.0 0.00 0.00 0.00 95 1016.4
20260906092849 71 84 0.0 0.0 0.00 0.00 0.00 95 1016.3
20260906092343 71 84 0.0 1.0 0.00 0.00 0.00 95 1016.2
20260906091839 71 67 1.0 1.0 0.00 0.00 0.00 94 1016.2
20260906091335 72 321 1.0 1.0 0.00 0.00 0.00 94 1016.1
20260906090832 72 132 0.0 0.0 0.00 0.00 0.00 93 1016.1
20260906090330 72 181 0.0 0.0 0.00 0.00 0.00 93 1016.0
20260906085825 73 181 1.0 1.0 0.00 0.00 0.00 93 1016.0
20260906085324 72 181 0.0 0.0 0.00 0.00 0.00 92 1016.1
20260906084819 73 180 0.0 0.0 0.00 0.00 0.00 92 1015.9
20260906084318 73 180 0.0 1.0 0.00 0.00 0.00 92 1016.0
20260906083813 73 184 0.0 1.0 0.00 0.00 0.00 92 1015.9
20260906083309 73 182 0.0 0.0 0.00 0.00 0.00 92 1015.8
20260906082803 73 183 0.0 0.0 0.00 0.00 0.00 93 1015.6
20260906082258 73 183 0.0 0.0 0.00 0.00 0.00 93 1015.9
20260906081754 73 182 0.0 0.0 0.00 0.00 0.00 93 1015.6
20260906081249 73 182 0.0 0.0 0.00 0.00 0.00 93 1015.9
20260906080745 73 176 1.0 1.0 0.00 0.00 0.00 93 1015.6
20260906080242 73 181 0.0 1.0 0.00 0.00 0.00 94 1015.7
20260906075735 73 204 0.0 1.0 0.00 0.00 0.00 94 1015.7
20260906075230 73 203 0.0 0.0 0.00 0.00 0.00 93 1015.7
20260906074725 73 204 0.0 0.0 0.00 0.00 0.00 93 1015.7
20260906074225 73 204 0.0 0.0 0.00 0.00 0.00 93 1015.9
20260906073724 73 204 0.0 0.0 0.00 0.00 0.00 93 1016.0
20260906073219 73 205 0.0 0.0 0.00 0.00 0.00 93 1015.9
20260906072715 73 205 0.0 0.0 0.00 0.00 0.00 93 1016.0
20260906072211 73 205 0.0 1.0 0.00 0.00 0.00 93 1015.8
20260906071707 73 209 0.0 0.0 0.00 0.00 0.00 92 1015.9
20260906071206 73 225 0.0 0.0 0.00 0.00 0.00 92 1015.8
20260906070703 73 144 0.0 1.0 0.00 0.00 0.00 92 1015.5
20260906070158 73 145 0.0 1.0 0.00 0.00 0.00 92 1015.9
20260906065658 74 145 0.0 0.0 0.00 0.00 0.00 91 1015.9
20260906065154 74 143 0.0 1.0 0.00 0.00 0.00 91 1015.9
20260906064649 74 174 0.0 2.0 0.00 0.00 0.00 91 1016.0
20260906064144 74 152 0.0 0.0 0.00 0.00 0.00 90 1016.0
20260906063639 74 113 0.0 2.0 0.00 0.00 0.00 90 1015.7
20260906063135 74 173 1.0 2.0 0.00 0.00 0.00 91 1015.7
20260906062631 74 179 1.0 1.0 0.00 0.00 0.00 91 1015.8
20260906062129 74 193 1.0 1.0 0.00 0.00 0.00 90 1015.8
20260906061626 74 226 0.0 1.0 0.00 0.00 0.00 91 1015.9
20260906061125 74 242 1.0 1.0 0.00 0.00 0.00 91 1015.8
20260906060622 74 72 1.0 1.0 0.00 0.00 0.00 90 1015.8
20260906060119 74 176 1.0 3.0 0.00 0.00 0.00 90 1016.0
20260906055615 74 139 0.0 1.0 0.00 0.00 0.00 90 1016.0
20260906055109 74 284 1.0 1.0 0.00 0.00 0.00 90 1015.9
20260906054604 74 171 0.0 1.0 0.00 0.00 0.00 90 1015.8
20260906054059 74 186 1.0 1.0 0.00 0.00 0.00 90 1016.0
20260906053556 74 277 0.0 2.0 0.00 0.00 0.00 90 1015.9
20260906053051 75 183 1.0 2.0 0.00 0.00 0.00 90 1016.0
20260906052546 75 171 1.0 1.0 0.00 0.00 0.00 89 1016.0
20260906052044 75 184 0.0 3.0 0.00 0.00 0.00 88 1015.9
20260906051539 74 186 1.0 2.0 0.00 0.00 0.00 89 1016.0
20260906051034 74 136 0.0 1.0 0.00 0.00 0.00 89 1016.1
20260906050529 75 135 0.0 0.0 0.00 0.00 0.00 90 1016.2
20260906050024 75 182 0.0 0.0 0.00 0.00 0.00 89 1016.1
20260906045522 75 187 0.0 1.0 0.00 0.00 0.00 89 1016.2
20260906045019 75 130 2.0 2.0 0.00 0.00 0.00 90 1016.3
20260906044514 75 159 2.0 3.0 0.00 0.00 0.00 91 1016.4
20260906044010 75 152 3.0 5.0 0.00 0.00 0.00 92 1016.4
20260906043505 75 88 2.0 3.0 0.00 0.00 0.00 93 1016.8
20260906043001 75 222 4.0 5.0 0.00 0.00 0.00 93 1016.8
20260906042459 75 166 3.0 6.0 0.00 0.00 0.00 93 1017.2
20260906041959 75 98 5.0 10.0 0.00 0.00 0.00 92 1017.1
20260906041456 75 86 4.0 7.0 0.00 0.00 0.00 91 1017.4
20260906040955 75 17 1.0 5.0 0.00 0.00 0.00 91 1017.5
20260906040450 75 97 1.0 3.0 0.00 0.00 0.00 90 1017.1
20260906035946 75 91 4.0 8.0 0.00 0.00 0.00 90 1017.6
20260906035441 74 85 1.0 3.0 0.00 0.00 0.00 89 1017.8
20260906034937 74 146 1.0 2.0 0.00 0.00 0.00 90 1017.8
20260906034431 74 189 1.0 1.0 0.00 0.00 0.00 89 1018.1
20260906033927 74 109 2.0 3.0 0.00 0.00 0.00 90 1018.0
20260906033427 74 126 2.0 3.0 0.00 0.00 0.00 91 1018.0
20260906032923 74 20 3.0 6.0 0.00 0.00 0.00 92 1018.1
20260906032419 74 275 3.0 7.0 0.00 0.00 0.00 93 1017.9
20260906031913 74 173 0.0 3.0 0.00 0.00 0.00 93 1017.4
20260906031408 75 38 0.0 2.0 0.00 0.00 0.00 92 1017.3
20260906030903 74 172 0.0 1.0 0.00 0.00 0.00 92 1016.9
20260906030358 75 210 0.0 0.0 0.00 0.00 0.00 91 1016.9
20260906025853 75 246 0.0 2.0 0.00 0.00 0.00 91 1016.7
20260906025347 75 276 2.0 5.0 0.00 0.00 0.00 91 1016.5
20260906024846 75 85 1.0 5.0 0.00 0.00 0.00 89 1016.7
20260906024345 76 55 2.0 8.0 0.00 0.00 0.00 88 1017.0
20260906023841 77 229 3.0 9.0 0.00 0.00 0.00 85 1016.7
20260906023337 79 354 11.0 13.0 0.00 0.00 0.00 81 1017.1
20260906022832 80 312 3.0 6.0 0.00 0.00 0.00 77 1016.9
20260906022326 82 335 3.0 9.0 0.00 0.00 0.00 73 1016.4
20260906021822 83 340 4.0 9.0 0.00 0.00 0.00 72 1016.7
20260906021321 83 332 5.0 7.0 0.00 0.00 0.00 72 1016.7
20260906020816 83 194 0.0 0.0 0.00 0.00 0.00 72 1015.8
20260906020315 83 301 1.0 5.0 0.00 0.00 0.00 73 1015.7
20260906015810 83 265 1.0 2.0 0.00 0.00 0.00 73 1015.1
20260906015308 84 174 1.0 1.0 0.00 0.00 0.00 73 1015.4
20260906014803 84 119 0.0 2.0 0.00 0.00 0.00 73 1015.3
20260906014259 84 168 1.0 1.0 0.00 0.00 0.00 72 1015.0
20260906013754 84 173 0.0 1.0 0.00 0.00 0.00 72 1015.0
20260906013249 84 194 1.0 1.0 0.00 0.00 0.00 71 1014.2
20260906012745 85 177 1.0 2.0 0.00 0.00 0.00 71 1014.3
20260906012240 85 188 1.0 2.0 0.00 0.00 0.00 70 1014.7
20260906011735 85 180 0.0 1.0 0.00 0.00 0.00 70 1014.8
20260906011234 85 168 1.0 2.0 0.00 0.00 0.00 69 1014.7
20260906010730 85 166 0.0 2.0 0.00 0.00 0.00 68 1014.7
20260906010226 85 166 1.0 1.0 0.00 0.00 0.00 68 1014.8
20260906005721 86 168 0.0 0.0 0.00 0.00 0.00 68 1014.8
20260906005220 86 166 0.0 1.0 0.00 0.00 0.00 67 1014.9
20260906004720 86 166 0.0 1.0 0.00 0.00 0.00 66 1014.8
20260906004215 86 166 1.0 2.0 0.00 0.00 0.00 66 1015.1
20260906003710 86 140 0.0 1.0 0.00 0.00 0.00 67 1015.1
20260906003206 86 133 1.0 1.0 0.00 0.00 0.00 67 1015.2
20260906002705 86 124 0.0 0.0 0.00 0.00 0.00 66 1015.2
20260906002200 86 124 0.0 0.0 0.00 0.00 0.00 66 1015.2
20260906001656 87 139 1.0 2.0 0.00 0.00 0.00 65 1015.2
20260906001155 87 92 0.0 0.0 0.00 0.00 0.00 65 1015.1
20260906000651 87 91 0.0 0.0 0.00 0.00 0.00 64 1015.1
20260906000146 88 91 1.0 1.0 0.00 0.00 0.00 63 1015.2
20260905235645 89 81 1.0 1.0 0.00 0.00 0.00 62 1015.3
20260905235140 89 354 3.0 3.0 0.00 0.00 0.00 59 1015.2
20260905234636 90 294 1.0 1.0 0.00 0.00 0.00 60 1015.1
20260905234131 90 325 1.0 2.0 0.00 0.00 0.00 59 1015.1
20260905233626 90 71 0.0 1.0 0.00 0.00 0.00 59 1015.3
20260905233120 91 241 0.0 1.0 0.00 0.00 0.00 57 1015.1
20260905232616 92 164 0.0 0.0 0.00 0.00 0.00 57 1015.3
20260905232111 92 241 0.0 1.0 0.00 0.00 0.00 57 1015.2
20260905231606 92 240 0.0 1.0 0.00 0.00 0.00 56 1014.9
20260905231102 93 242 0.0 1.0 0.00 0.00 0.00 55 1015.1
20260905230603 93 31 0.0 1.0 0.00 0.00 0.00 55 1015.1
20260905230101 93 91 0.0 1.0 0.00 0.00 0.00 54 1014.8
20260905225554 93 239 0.0 1.0 0.00 0.00 0.00 54 1014.8
20260905225049 94 87 0.0 1.0 0.00 0.00 0.00 54 1014.6
20260905224544 94 107 1.0 2.0 0.00 0.00 0.00 54 1014.9
20260905224043 94 137 0.0 2.0 0.00 0.00 0.00 52 1015.0
20260905223541 95 58 1.0 3.0 0.00 0.00 0.00 52 1015.1
20260905223036 95 267 1.0 1.0 0.00 0.00 0.00 52 1014.8
20260905222531 95 109 1.0 2.0 0.00 0.00 0.00 52 1015.1
20260905222026 95 113 1.0 3.0 0.00 0.00 0.00 51 1014.8
20260905221522 95 148 0.0 2.0 0.00 0.00 0.00 51 1015.0
20260905221018 95 285 2.0 3.0 0.00 0.00 0.00 50 1014.6
20260905220514 96 91 2.0 5.0 0.00 0.00 0.00 49 1014.7
20260905220010 96 180 0.0 3.0 0.00 0.00 0.00 49 1014.7
20260905215504 96 158 2.0 3.0 0.00 0.00 0.00 49 1014.8
20260905215000 96 80 2.0 3.0 0.00 0.00 0.00 49 1014.9
20260905214456 96 202 0.0 1.0 0.00 0.00 0.00 50 1014.7
20260905213956 96 93 2.0 3.0 0.00 0.00 0.00 49 1014.7
20260905213452 97 36 1.0 3.0 0.00 0.00 0.00 49 1014.7
20260905212947 97 317 3.0 3.0 0.00 0.00 0.00 47 1014.7
20260905212442 97 171 1.0 1.0 0.00 0.00 0.00 47 1014.7
20260905211941 97 259 1.0 5.0 0.00 0.00 0.00 46 1014.9
20260905211437 96 300 2.0 5.0 0.00 0.00 0.00 47 1014.8
20260905210932 96 122 1.0 2.0 0.00 0.00 0.00 48 1015.0
20260905210427 96 34 1.0 2.0 0.00 0.00 0.00 48 1014.9
20260905205926 97 117 3.0 7.0 0.00 0.00 0.00 48 1015.1
20260905205421 97 100 4.0 6.0 0.00 0.00 0.00 46 1015.2
20260905204920 97 208 0.0 2.0 0.00 0.00 0.00 46 1015.1
20260905204417 98 122 1.0 2.0 0.00 0.00 0.00 46 1015.4
20260905203915 97 195 1.0 1.0 0.00 0.00 0.00 50 1015.5
20260905203411 96 307 2.0 3.0 0.00 0.00 0.00 51 1015.6
20260905202906 97 47 1.0 3.0 0.00 0.00 0.00 48 1015.4
20260905202401 99 133 2.0 5.0 0.00 0.00 0.00 47 1015.5
20260905201856 101 200 1.0 2.0 0.00 0.00 0.00 44 1015.6
20260905201351 101 108 0.0 2.0 0.00 0.00 0.00 43 1015.4
20260905200846 98 185 1.0 1.0 0.00 0.00 0.00 45 1015.8
20260905200342 96 270 0.0 1.0 0.00 0.00 0.00 49 1015.7
20260905195840 97 305 2.0 2.0 0.00 0.00 0.00 47 1015.8
20260905195335 96 74 2.0 3.0 0.00 0.00 0.00 48 1016.0
20260905194831 96 284 0.0 1.0 0.00 0.00 0.00 49 1015.9
20260905194331 96 312 1.0 1.0 0.00 0.00 0.00 49 1016.1
20260905193830 97 69 2.0 5.0 0.00 0.00 0.00 47 1016.2
20260905193325 98 311 5.0 7.0 0.00 0.00 0.00 47 1016.2
20260905192821 99 261 3.0 3.0 0.00 0.00 0.00 46 1016.1
20260905192317 99 309 4.0 5.0 0.00 0.00 0.00 46 1016.2
20260905191815 98 37 4.0 7.0 0.00 0.00 0.00 45 1016.5
20260905191314 98 352 3.0 5.0 0.00 0.00 0.00 47 1016.5
20260905190813 98 318 3.0 6.0 0.00 0.00 0.00 46 1016.7
20260905190313 98 162 1.0 3.0 0.00 0.00 0.00 48 1016.6
20260905185811 97 331 3.0 6.0 0.00 0.00 0.00 47 1016.5
20260905185307 96 315 2.0 6.0 0.00 0.00 0.00 50 1016.6
20260905184801 95 260 0.0 2.0 0.00 0.00 0.00 50 1016.5
20260905184259 95 317 2.0 3.0 0.00 0.00 0.00 51 1016.8
20260905183753 97 357 4.0 7.0 0.00 0.00 0.00 49 1016.7
20260905183248 98 93 3.0 5.0 0.00 0.00 0.00 49 1016.6
20260905182747 98 226 0.0 3.0 0.00 0.00 0.00 47 1016.8
20260905182242 97 193 3.0 6.0 0.00 0.00 0.00 47 1016.9
20260905181738 96 265 2.0 3.0 0.00 0.00 0.00 49 1017.2
20260905181237 96 278 3.0 8.0 0.00 0.00 0.00 52 1017.3
20260905180732 97 272 6.0 10.0 0.00 0.00 0.00 50 1017.1
20260905180227 97 222 1.0 5.0 0.00 0.00 0.00 50 1017.1
20260905175727 97 220 3.0 3.0 0.00 0.00 0.00 50 1017.4
20260905175221 95 97 1.0 3.0 0.00 0.00 0.00 51 1017.3
20260905174716 95 293 4.0 5.0 0.00 0.00 0.00 51 1017.4
20260905174212 95 286 3.0 7.0 0.00 0.00 0.00 53 1017.6
20260905173709 96 262 1.0 5.0 0.00 0.00 0.00 51 1017.7
20260905173204 95 81 1.0 2.0 0.00 0.00 0.00 51 1017.7
20260905172703 95 301 5.0 7.0 0.00 0.00 0.00 52 1017.8
20260905172157 97 295 3.0 5.0 0.00 0.00 0.00 50 1017.8
20260905171653 95 151 1.0 3.0 0.00 0.00 0.00 51 1017.7
20260905171149 95 292 2.0 6.0 0.00 0.00 0.00 55 1017.7
20260905170646 95 279 3.0 6.0 0.00 0.00 0.00 53 1017.7
20260905170141 96 302 4.0 6.0 0.00 0.00 0.00 55 1017.8
20260905165640 96 253 2.0 5.0 0.00 0.00 0.00 53 1017.9
20260905165136 96 90 2.0 3.0 0.00 0.00 0.00 54 1018.0
20260905164631 95 187 0.0 6.0 0.00 0.00 0.00 56 1017.9
20260905164130 95 87 3.0 7.0 0.00 0.00 0.00 54 1017.9
20260905163626 95 301 3.0 5.0 0.00 0.00 0.00 56 1018.0
20260905163123 94 70 2.0 10.0 0.00 0.00 0.00 57 1018.1
20260905162619 93 312 2.0 8.0 0.00 0.00 0.00 56 1018.1
20260905162118 94 333 4.0 6.0 0.00 0.00 0.00 57 1018.1
20260905161617 93 264 3.0 5.0 0.00 0.00 0.00 57 1018.1
20260905161115 93 123 3.0 7.0 0.00 0.00 0.00 56 1018.1
20260905160615 94 327 3.0 5.0 0.00 0.00 0.00 57 1018.3
20260905160109 93 340 1.0 5.0 0.00 0.00 0.00 60 1018.3
20260905155604 93 313 3.0 5.0 0.00 0.00 0.00 59 1018.3
20260905155103 92 341 6.0 7.0 0.00 0.00 0.00 60 1018.4
20260905154557 92 266 5.0 6.0 0.00 0.00 0.00 59 1018.5
20260905154053 93 298 5.0 5.0 0.00 0.00 0.00 59 1018.5
20260905153548 92 294 4.0 7.0 0.00 0.00 0.00 59 1018.4
20260905153048 93 248 3.0 3.0 0.00 0.00 0.00 60 1018.4
20260905152543 92 308 3.0 3.0 0.00 0.00 0.00 59 1018.5
20260905152038 92 319 3.0 6.0 0.00 0.00 0.00 60 1018.6
20260905151533 91 333 3.0 5.0 0.00 0.00 0.00 59 1018.5
20260905151029 91 307 3.0 5.0 0.00 0.00 0.00 60 1018.4
20260905150524 91 281 1.0 6.0 0.00 0.00 0.00 62 1018.5
20260905150021 91 337 1.0 6.0 0.00 0.00 0.00 61 1018.6
20260905145515 91 233 4.0 6.0 0.00 0.00 0.00 60 1018.6
20260905145015 90 276 1.0 1.0 0.00 0.00 0.00 63 1018.9
20260905144510 88 32 0.0 5.0 0.00 0.00 0.00 67 1018.5
20260905144009 88 307 2.0 6.0 0.00 0.00 0.00 66 1018.7
20260905143508 89 2 4.0 6.0 0.00 0.00 0.00 66 1018.6
20260905143003 89 290 1.0 3.0 0.00 0.00 0.00 67 1018.7
20260905142501 87 285 1.0 3.0 0.00 0.00 0.00 70 1018.7
20260905141957 87 348 3.0 5.0 0.00 0.00 0.00 70 1018.9
20260905141452 87 297 1.0 2.0 0.00 0.00 0.00 70 1018.7
20260905140948 87 219 0.0 1.0 0.00 0.00 0.00 69 1018.9
20260905140443 86 318 1.0 1.0 0.00 0.00 0.00 72 1018.7
20260905135942 86 290 1.0 2.0 0.00 0.00 0.00 74 1018.6
20260905135438 85 292 1.0 2.0 0.00 0.00 0.00 75 1018.7
20260905134933 85 325 1.0 2.0 0.00 0.00 0.00 75 1018.5
20260905134432 85 145 0.0 1.0 0.00 0.00 0.00 75 1018.9
20260905133931 82 288 0.0 1.0 0.00 0.00 0.00 79 1018.9
20260905133426 81 284 0.0 1.0 0.00 0.00 0.00 81 1018.7
20260905132926 81 290 1.0 1.0 0.00 0.00 0.00 81 1019.0
20260905132421 81 301 2.0 2.0 0.00 0.00 0.00 82 1018.9
20260905131916 80 269 1.0 1.0 0.00 0.00 0.00 83 1018.9
20260905131412 80 271 1.0 1.0 0.00 0.00 0.00 83 1019.0
20260905130906 79 283 1.0 1.0 0.00 0.00 0.00 83 1018.9
20260905130406 79 277 1.0 2.0 0.00 0.00 0.00 83 1018.7
20260905125901 79 205 0.0 1.0 0.00 0.00 0.00 85 1018.9
20260905125355 79 186 0.0 0.0 0.00 0.00 0.00 86 1019.0
20260905124851 78 186 0.0 1.0 0.00 0.00 0.00 87 1018.9
20260905124348 78 186 0.0 0.0 0.00 0.00 0.00 89 1019.0
20260905123848 77 186 0.0 0.0 0.00 0.00 0.00 89 1019.1
20260905123344 77 186 0.0 0.0 0.00 0.00 0.00 90 1018.9
20260905122844 77 186 0.0 1.0 0.00 0.00 0.00 90 1019.0
20260905122343 76 184 0.0 0.0 0.00 0.00 0.00 91 1019.1